[[{"header":{"parameterUnit":"m.s-1","parameterCategory":2,"la1":30.2991,"la2":30.254,"lo1":-89.0895,"lo2":-89.0444,"dy":0.0017,"dx":0.0017,"nx":28,"ny":28,"refTime":"2024-06-18T21:00:00:Z","depth":"0","parameterNumber":2,"parameterNumberName":"U-component_of_CURRENTS"},"data":[0,0,0,0,0,0,0,0,0,0,0,0,0,0,0,0,0,0,0,0,0,0,0,0,0,0,0,0,0,0,0,0,0,0,0,0,0,0,0,0,0,0,0,0,0,0,0,0,0,0,0,0,0,0,0,0,0,0,0.2227,0.2226,0,0.2125,0.2124,0.2122,0.2057,0.2056,0.2056,0.2056,0.2041,0.204,0.204,0,0,0,0,0,0,0,0,0,0,0,0,0,0.2362,0.236,0.2227,0.2226,0.2225,0.2125,0.2124,0.2122,0.2057,0.2056,0.2056,0.2056,0.2041,0.2041,0.204,0,0,0,0,0,0,0,0,0,0,0,0,0,0.2284,0.2359,0.2227,0.2182,0.2178,0.2126,0.2124,0.2122,0.2057,0.2056,0.2056,0.2056,0.2041,0.2041,0.204,0.2042,0,0,0.2039,0.2039,0,0,0,0,0,0,0,0,0.2288,0.2278,0.219,0.2185,0.218,0.2106,0.2166,0.21,0.2057,0.2099,0.2056,0.2056,0.2073,0.207,0.2045,0.2041,0.204,0.2039,0.2039,0.2038,0.2038,0,0,0,0,0,0,0,0.2294,0.2282,0.2184,0.2189,0.2183,0.2167,0.2155,0.2152,0.2088,0.2096,0.2091,0.2085,0.207,0.2046,0.2045,0.204,0.2039,0.2038,0.2038,0.2038,0.2106,0.2107,0,0,0,0,0,0,0.2312,0.2287,0.2187,0.2181,0.2238,0.2165,0.2152,0.2128,0.2086,0.2079,0.2085,0.2082,0.2047,0.2045,0.2044,0.2107,0.2038,0.2038,0.2038,0.2104,0.2106,0.2108,0,0,0,0,0,0,0.2315,0.2303,0.2191,0.2236,0.222,0.2163,0.2136,0.2126,0.211,0.2077,0.2072,0.2082,0.2046,0.2045,0.2027,0.2104,0.2038,0.2037,0.2101,0.2104,0.2107,0.2193,0,0,0,0,0,0,0.2319,0.2305,0.23,0.2236,0.2219,0.2176,0.2137,0.2124,0.2107,0.2103,0.2074,0.207,0.2046,0.2027,0.2026,0.2102,0.2037,0.2098,0.2103,0.2106,0.2188,0.2199,0.2208,0,0,0,0,0,0.2324,0.2311,0.23,0.2289,0.2211,0.2177,0.2167,0.2124,0.2108,0.2108,0.2067,0.2072,0.2054,0.2026,0.2025,0.2103,0.2097,0.2101,0.2106,0.2183,0.2196,0.2208,0,0,0,0,0,0,0.2354,0.2301,0.2288,0.2256,0.2232,0.2168,0.2161,0.2136,0.2101,0.2099,0.2063,0.2057,0.2081,0.2071,0.2043,0.2136,0.2092,0.2096,0.2151,0.2163,0.2174,0.2179,0.2037,0,0,0,0,0,0.2364,0.2347,0.23,0.2279,0.227,0.2222,0.2205,0.218,0.2139,0.2123,0.2099,0.209,0.2099,0.2109,0.2102,0.2136,0.2141,0.2198,0.2208,0.2217,0.2222,0.2281,0.2297,0.2123,0.2123,0.2123,0,0,0.2366,0.234,0.2326,0.2287,0.2261,0.2249,0.221,0.2192,0.219,0.2131,0.212,0.2113,0.211,0.2142,0.2159,0.2146,0.227,0.2223,0.223,0.223,0.2288,0.2304,0.232,0.2126,0.2126,0.2125,0,0,0.2365,0.2345,0.2333,0.2324,0.2302,0.2278,0.2281,0.2234,0.2224,0.221,0.2184,0.2213,0.2201,0.2228,0.2239,0.2307,0.2311,0.2326,0.2396,0.2454,0.2469,0.2482,0.2511,0.2526,0.2346,0.2346,0.2346,0,0.2369,0.2344,0.2328,0.2324,0.2319,0.2297,0.2292,0.2284,0.2238,0.2247,0.2223,0.2248,0.2253,0.2321,0.2346,0.2338,0.2346,0.2348,0.2468,0.2481,0.2493,0.252,0.2535,0.2351,0.235,0.235,0.2349,0,0.2358,0.2351,0.2348,0.2338,0.234,0.2331,0.2328,0.2336,0.2329,0.2323,0.2371,0.2367,0.2391,0.2426,0.2401,0.251,0.248,0.2463,0.2436,0.2516,0.2539,0.2553,0.2357,0.2356,0.2354,0.2353,0,0,0.2295,0.2333,0.2323,0.2338,0.2346,0.2339,0.2373,0.2388,0.2415,0.2422,0.246,0.2513,0.2523,0.2537,0.2546,0.2609,0.2709,0.2576,0.2577,0.2603,0.2815,0.2839,0.2856,0.2707,0.271,0.2712,0.2797,0,0.2277,0.2287,0.231,0.2324,0.2327,0.2357,0.2389,0.242,0.2444,0.2479,0.2536,0.2568,0.2566,0.2588,0.2657,0.2686,0.275,0.2686,0.2735,0.2736,0.2747,0.2876,0.2694,0.2759,0.2811,0.2813,0.2815,0,0.2224,0.2248,0.2263,0.2327,0.2332,0.2348,0.2407,0.2436,0.2512,0.2541,0.261,0.2626,0.2729,0.2702,0.2829,0.2782,0.2809,0.2833,0.2837,0.2839,0.2789,0.2688,0.2783,0.2663,0.2837,0.2835,0.2834,0,0.2153,0.2199,0.2217,0.2232,0.2306,0.2332,0.2371,0.2447,0.2484,0.2577,0.2624,0.272,0.2779,0.2839,0.2912,0.2866,0.3038,0.2978,0.3026,0.3026,0.2873,0.2855,0.2855,0.3071,0.3071,0.3071,0.3071,0,0.2092,0.2095,0.2189,0.2191,0.2224,0.2299,0.2341,0.2402,0.2497,0.2549,0.2649,0.2711,0.2818,0.2918,0.295,0.3063,0.308,0.3071,0.3073,0.2898,0.2883,0.2771,0.2694,0.3074,0.3073,0.3073,0.3072,0,0.1977,0.2039,0.2063,0.2157,0.2183,0.22,0.2297,0.2338,0.2456,0.253,0.2563,0.2726,0.2867,0.2981,0.3099,0.3131,0.3105,0.3239,0.3025,0.3004,0.2917,0.2851,0.2831,0.27,0.329,0.3292,0.3293,0,0.1909,0.1918,0.2009,0.2029,0.2062,0.2113,0.215,0.2277,0.2331,0.2523,0.2554,0.2739,0.2833,0.3068,0.3167,0.3276,0.3137,0.3173,0.3072,0.2932,0.2859,0.2772,0.2653,0.2885,0.2883,0.2881,0.288,0,0.1792,0.1835,0.1869,0.1918,0.1955,0.1994,0.2066,0.2102,0.2261,0.2346,0.2478,0.2575,0.2842,0.2911,0.3123,0.3149,0.2968,0.3143,0.3039,0.2604,0.2461,0.2327,0.2796,0.2864,0.2865,0.2866,0.2867,0.2868,0.17,0.17,0.1768,0.1795,0.184,0.1868,0.1848,0.1945,0.2007,0.2083,0.2287,0.2353,0.2575,0.285,0.2933,0.2924,0.2896,0.2765,0.2715,0.2657,0.2482,0.2939,0.2995,0.2998,0.2999,0.3001,0.3003,0,0.1585,0.1617,0.1646,0.1675,0.1662,0.1735,0.1779,0.1734,0.1737,0.1858,0.1934,0.2074,0.2193,0.2402,0.2549,0.2474,0.2367,0.2368,0.2134,0.2047,0.2479,0.2411,0.2291,0.2291,0.2291,0.2291,0.2291,0.2291,0.1532,0.1519,0.1541,0.1489,0.1503,0.1422,0.1408,0.1367,0.1409,0.1415,0.1464,0.1591,0.1847,0.2057,0.2067,0.2045,0.1832,0.1784,0.1777,0.2002,0.2032,0.206,0.198,0.1771,0.1771,0.1213,0.1208,0.1205]},{"header":{"parameterUnit":"m.s-1","parameterCategory":2,"la1":30.2991,"la2":30.254,"lo1":-89.0895,"lo2":-89.0444,"dy":0.0017,"dx":0.0017,"nx":28,"ny":28,"refTime":"2024-06-18T21:00:00:Z","depth":"0","parameterNumber":3,"parameterNumberName":"V-component_of_CURRENTS"},"data":[0,0,0,0,0,0,0,0,0,0,0,0,0,0,0,0,0,0,0,0,0,0,0,0,0,0,0,0,0,0,0,0,0,0,0,0,0,0,0,0,0,0,0,0,0,0,0,0,0,0,0,0,0,0,0,0,0,0,-0.0512,-0.0513,0,-0.063,-0.0632,-0.0634,-0.0702,-0.0702,-0.0702,-0.0702,-0.0771,-0.0772,-0.0774,0,0,0,0,0,0,0,0,0,0,0,0,0,-0.0451,-0.0451,-0.0512,-0.0513,-0.0515,-0.063,-0.0632,-0.0634,-0.0702,-0.0702,-0.0702,-0.0702,-0.077,-0.0772,-0.0774,0,0,0,0,0,0,0,0,0,0,0,0,0,-0.0517,-0.0452,-0.0512,-0.056,-0.0565,-0.063,-0.0632,-0.0634,-0.0702,-0.0702,-0.0702,-0.0702,-0.0769,-0.0772,-0.0775,-0.0793,0,0,-0.0783,-0.0784,0,0,0,0,0,0,0,0,-0.0513,-0.052,-0.0552,-0.0557,-0.0563,-0.0648,-0.0636,-0.0684,-0.0702,-0.0654,-0.0702,-0.0702,-0.0723,-0.073,-0.0757,-0.0796,-0.0799,-0.0784,-0.0785,-0.0786,-0.0787,0,0,0,0,0,0,0,-0.0508,-0.0516,-0.0562,-0.0553,-0.056,-0.0611,-0.062,-0.0646,-0.0689,-0.0658,-0.0662,-0.067,-0.0726,-0.0755,-0.0759,-0.08,-0.0783,-0.0786,-0.0788,-0.0789,-0.0839,-0.0839,0,0,0,0,0,0,-0.0481,-0.0511,-0.0559,-0.0566,-0.0533,-0.0612,-0.0622,-0.0624,-0.069,-0.0699,-0.067,-0.0673,-0.075,-0.0756,-0.0762,-0.0771,-0.0786,-0.0789,-0.0791,-0.0839,-0.0839,-0.0839,0,0,0,0,0,0,-0.048,-0.0484,-0.0554,-0.0539,-0.0551,-0.0612,-0.0614,-0.0626,-0.0652,-0.0699,-0.0708,-0.0682,-0.075,-0.0758,-0.0808,-0.0775,-0.079,-0.0793,-0.084,-0.0839,-0.0839,-0.08,0,0,0,0,0,0,-0.0477,-0.0483,-0.0484,-0.0536,-0.055,-0.0589,-0.0614,-0.0628,-0.0655,-0.066,-0.0713,-0.072,-0.0751,-0.0804,-0.0811,-0.0779,-0.0795,-0.084,-0.084,-0.0839,-0.0802,-0.0798,-0.0795,0,0,0,0,0,-0.0475,-0.0479,-0.0483,-0.049,-0.0546,-0.0589,-0.0602,-0.0648,-0.0655,-0.067,-0.0721,-0.0718,-0.0803,-0.0808,-0.0815,-0.0783,-0.0841,-0.084,-0.0839,-0.0803,-0.0799,-0.0795,0,0,0,0,0,0,-0.046,-0.0487,-0.0493,-0.0506,-0.054,-0.0599,-0.0619,-0.0641,-0.0694,-0.0695,-0.074,-0.0751,-0.0774,-0.0791,-0.0795,-0.0794,-0.081,-0.081,-0.0779,-0.0775,-0.0772,-0.074,-0.0797,0,0,0,0,0,-0.0452,-0.0459,-0.0493,-0.0504,-0.0514,-0.0562,-0.0586,-0.061,-0.0658,-0.0681,-0.0716,-0.0748,-0.0777,-0.0789,-0.082,-0.0833,-0.0849,-0.0809,-0.0805,-0.0802,-0.0782,-0.0813,-0.0811,-0.0836,-0.0836,-0.0836,0,0,-0.045,-0.0466,-0.0471,-0.0501,-0.053,-0.0543,-0.0577,-0.0604,-0.061,-0.0677,-0.0703,-0.0744,-0.0782,-0.0802,-0.0808,-0.0811,-0.0804,-0.0801,-0.0799,-0.0779,-0.0812,-0.081,-0.0808,-0.0836,-0.0836,-0.0836,0,0,-0.0447,-0.0459,-0.046,-0.048,-0.0509,-0.0534,-0.0533,-0.0579,-0.0594,-0.0631,-0.0672,-0.0704,-0.0747,-0.0771,-0.0787,-0.0781,-0.0792,-0.0773,-0.0726,-0.0757,-0.0755,-0.0754,-0.0773,-0.0774,-0.0765,-0.0764,-0.0764,0,-0.0441,-0.0443,-0.0471,-0.0475,-0.0483,-0.052,-0.0518,-0.0542,-0.0599,-0.0605,-0.0627,-0.0692,-0.0727,-0.0744,-0.0743,-0.0769,-0.079,-0.074,-0.0753,-0.0752,-0.0751,-0.0771,-0.0772,-0.0763,-0.0763,-0.0763,-0.0763,0,-0.0435,-0.0437,-0.044,-0.0447,-0.0463,-0.047,-0.0491,-0.0505,-0.0521,-0.0544,-0.0566,-0.063,-0.0664,-0.0671,-0.0709,-0.0706,-0.0724,-0.0752,-0.0761,-0.0746,-0.0768,-0.077,-0.076,-0.076,-0.0761,-0.0761,0,0,-0.0402,-0.0428,-0.0424,-0.0415,-0.0441,-0.0446,-0.0452,-0.0463,-0.0448,-0.0497,-0.049,-0.0546,-0.0573,-0.0592,-0.0633,-0.0653,-0.0673,-0.0691,-0.0694,-0.0706,-0.0736,-0.0709,-0.0709,-0.0711,-0.0711,-0.0711,-0.0755,0,-0.038,-0.0372,-0.0395,-0.0377,-0.0368,-0.0397,-0.0394,-0.0408,-0.0421,-0.0427,-0.0473,-0.0488,-0.0542,-0.0553,-0.0586,-0.0645,-0.0676,-0.0658,-0.0751,-0.0753,-0.0729,-0.0709,-0.0677,-0.0709,-0.0757,-0.0757,-0.0757,0,-0.035,-0.0346,-0.0326,-0.0321,-0.0317,-0.0312,-0.0295,-0.0299,-0.032,-0.0332,-0.0362,-0.0403,-0.0436,-0.0489,-0.0576,-0.0563,-0.0643,-0.0693,-0.0697,-0.0681,-0.0728,-0.0733,-0.0711,-0.0855,-0.076,-0.076,-0.076,0,-0.0287,-0.0288,-0.0263,-0.0263,-0.0271,-0.0257,-0.0256,-0.0264,-0.0241,-0.0266,-0.0253,-0.0319,-0.0332,-0.0436,-0.0537,-0.0564,-0.0628,-0.0687,-0.0741,-0.074,-0.0731,-0.0729,-0.0852,-0.0761,-0.0761,-0.0761,-0.0761,0,-0.0241,-0.0216,-0.0226,-0.0209,-0.0164,-0.019,-0.0139,-0.0153,-0.0145,-0.0101,-0.0191,-0.0164,-0.0319,-0.0377,-0.0501,-0.0599,-0.0607,-0.0714,-0.0744,-0.0716,-0.0712,-0.0852,-0.0941,-0.0762,-0.0762,-0.0762,-0.0761,0,-0.0171,-0.0185,-0.0149,-0.0142,-0.0132,-0.0094,-0.006,-0.0023,-0.003,0.0025,0.0022,-0.0038,-0.0105,-0.0252,-0.0402,-0.0527,-0.0717,-0.0688,-0.0633,-0.0653,-0.084,-0.0927,-0.1043,-0.1129,-0.0757,-0.0756,-0.0756,0,-0.0134,-0.011,-0.0085,-0.0053,-0.0044,0.0003,0.0037,0.0036,0.0079,0.0118,0.0153,0.0109,0.0095,-0.0104,-0.0314,-0.0512,-0.0684,-0.0646,-0.0696,-0.0825,-0.0946,-0.1002,-0.1072,-0.068,-0.0679,-0.0678,-0.0677,0,-0.0059,-0.0052,-0.0025,0.0037,0.0082,0.0131,0.0181,0.0231,0.0247,0.03,0.0364,0.0365,0.0199,0.0032,-0.0237,-0.0394,-0.0737,-0.0635,-0.0794,-0.09,-0.0945,-0.1049,-0.0676,-0.067,-0.067,-0.0671,-0.0671,-0.0672,0.0004,0.0037,0.0069,0.0131,0.0182,0.0248,0.0288,0.0353,0.0435,0.0492,0.0506,0.0513,0.0286,-0.0056,-0.0269,-0.0655,-0.0685,-0.0797,-0.0894,-0.094,-0.1014,-0.0605,-0.0615,-0.0615,-0.0616,-0.0616,-0.0616,0,0.0075,0.0102,0.0161,0.0219,0.0275,0.029,0.0371,0.0399,0.0493,0.0565,0.0607,0.0504,0.0226,-0.0111,-0.058,-0.0867,-0.1005,-0.1042,-0.1142,-0.1207,-0.0862,-0.0849,-0.0878,-0.0878,-0.0878,-0.0877,-0.0877,-0.0877,0.0113,0.017,0.0186,0.028,0.0323,0.0371,0.0409,0.0463,0.051,0.0554,0.055,0.052,0.0287,-0.0443,-0.1017,-0.1169,-0.1429,-0.1422,-0.1586,-0.1375,-0.1361,-0.1347,-0.1357,-0.1492,-0.1493,-0.1884,-0.1888,-0.1891]}],[{"header":{"parameterUnit":"m.s-1","parameterCategory":2,"la1":30.2991,"la2":30.254,"lo1":-89.0895,"lo2":-89.0444,"dy":0.0017,"dx":0.0017,"nx":28,"ny":28,"refTime":"2024-06-18T21:00:00:Z","depth":"2","parameterNumber":2,"parameterNumberName":"U-component_of_CURRENTS"},"data":[0,0,0,0,0,0,0,0,0,0,0,0,0,0,0,0,0,0,0,0,0,0,0,0,0,0,0,0,0,0,0,0,0,0,0,0,0,0,0,0,0,0,0,0,0,0,0,0,0,0,0,0,0,0,0,0,0,0,0.2259,0.2258,0,0.2158,0.2156,0.2155,0.2089,0.2089,0.2089,0.2089,0.2078,0.2078,0.2078,0,0,0,0,0,0,0,0,0,0,0,0,0,0.2393,0.2391,0.2259,0.2258,0.2257,0.2158,0.2156,0.2155,0.2089,0.2089,0.2089,0.2089,0.2078,0.2078,0.2078,0,0,0,0,0,0,0,0,0,0,0,0,0,0.2315,0.239,0.2259,0.2214,0.2209,0.2158,0.2156,0.2154,0.2089,0.2089,0.2089,0.2088,0.2078,0.2078,0.2078,0.2081,0,0,0.2077,0.2077,0,0,0,0,0,0,0,0,0.2319,0.231,0.2222,0.2217,0.2212,0.2138,0.22,0.2135,0.2089,0.2132,0.2089,0.2088,0.2109,0.2106,0.2082,0.2081,0.208,0.2077,0.2077,0.2077,0.2077,0,0,0,0,0,0,0,0.2325,0.2314,0.2216,0.2221,0.2215,0.2199,0.2187,0.2187,0.2122,0.2128,0.2124,0.2117,0.2106,0.2082,0.2082,0.208,0.2077,0.2077,0.2077,0.2077,0.2148,0.215,0,0,0,0,0,0,0.2343,0.2319,0.2219,0.2213,0.2269,0.2197,0.2184,0.216,0.212,0.2114,0.2118,0.2115,0.2083,0.2082,0.2081,0.2145,0.2077,0.2077,0.2077,0.2146,0.2148,0.215,0,0,0,0,0,0,0.2346,0.2334,0.2223,0.2267,0.2252,0.2195,0.2169,0.2158,0.2142,0.2112,0.2107,0.2115,0.2083,0.2082,0.2064,0.2142,0.2077,0.2077,0.2143,0.2146,0.2149,0.2234,0,0,0,0,0,0,0.235,0.2336,0.2331,0.2268,0.225,0.2208,0.2169,0.2156,0.214,0.2135,0.2108,0.2105,0.2082,0.2064,0.2064,0.2141,0.2076,0.2141,0.2145,0.2148,0.2228,0.2239,0.2248,0,0,0,0,0,0.2355,0.2342,0.2331,0.232,0.2243,0.2209,0.2199,0.2156,0.214,0.214,0.21,0.2107,0.2091,0.2063,0.2063,0.2142,0.2139,0.2144,0.2148,0.2224,0.2237,0.2248,0,0,0,0,0,0,0.2384,0.2332,0.2319,0.2288,0.2264,0.22,0.2193,0.2168,0.2134,0.2131,0.2097,0.2092,0.2117,0.2108,0.208,0.2176,0.2132,0.2136,0.219,0.2202,0.2212,0.2217,0.2076,0,0,0,0,0,0.2395,0.2377,0.2331,0.231,0.2301,0.2254,0.2237,0.2212,0.2171,0.2156,0.2132,0.2125,0.2135,0.2146,0.214,0.2176,0.2181,0.2238,0.2249,0.2257,0.2263,0.2322,0.2338,0.2165,0.2165,0.2165,0,0,0.2396,0.2371,0.2357,0.2318,0.2292,0.2281,0.2242,0.2224,0.2222,0.2164,0.2154,0.2148,0.2146,0.218,0.2198,0.2184,0.231,0.2263,0.227,0.2271,0.2328,0.2345,0.236,0.2168,0.2168,0.2167,0,0,0.2396,0.2376,0.2364,0.2355,0.2333,0.2309,0.2313,0.2265,0.2256,0.2243,0.2218,0.2247,0.2237,0.2265,0.2277,0.2345,0.235,0.2365,0.2434,0.2492,0.2506,0.2519,0.2548,0.2563,0.2384,0.2384,0.2384,0,0.24,0.2375,0.2359,0.2355,0.235,0.2329,0.2324,0.2316,0.227,0.2279,0.2255,0.2283,0.2289,0.2358,0.2382,0.2375,0.2383,0.2386,0.2505,0.2518,0.253,0.2556,0.2572,0.2389,0.2388,0.2388,0.2387,0,0.2389,0.2381,0.2379,0.2369,0.2372,0.2363,0.236,0.2368,0.2362,0.2356,0.2405,0.2402,0.2426,0.2462,0.2437,0.2547,0.2517,0.25,0.2474,0.2553,0.2575,0.259,0.2395,0.2394,0.2392,0.2391,0,0,0.2326,0.2363,0.2353,0.2369,0.2377,0.237,0.2405,0.242,0.2447,0.2455,0.2493,0.2548,0.2557,0.2572,0.2582,0.2644,0.2744,0.2612,0.2613,0.2638,0.2849,0.2873,0.289,0.2742,0.2745,0.2747,0.2831,0,0.2307,0.2318,0.2341,0.2355,0.2358,0.2389,0.2421,0.2452,0.2477,0.2513,0.257,0.2602,0.26,0.2623,0.2692,0.2721,0.2785,0.2721,0.277,0.2771,0.2783,0.291,0.2604,0.2658,0.2845,0.2848,0.2849,0,0.2254,0.2279,0.2293,0.2358,0.2363,0.2379,0.2439,0.2468,0.2545,0.2574,0.2643,0.266,0.2762,0.2735,0.2863,0.2816,0.2843,0.2867,0.2871,0.2873,0.2824,0.261,0.2677,0.2873,0.2871,0.2869,0.2868,0,0.2183,0.223,0.2248,0.2263,0.2337,0.2364,0.2403,0.2479,0.2516,0.261,0.2656,0.2752,0.2812,0.2872,0.2945,0.2899,0.3071,0.3012,0.3059,0.3059,0.2801,0.2775,0.3105,0.3105,0.3105,0.3105,0.3104,0,0.2122,0.2125,0.2219,0.2222,0.2255,0.233,0.2372,0.2433,0.2529,0.258,0.268,0.2743,0.285,0.2951,0.2982,0.3095,0.3113,0.3103,0.3106,0.2823,0.28,0.2976,0.296,0.3108,0.3107,0.3106,0.3106,0,0.2007,0.2069,0.2093,0.2188,0.2213,0.223,0.2328,0.2369,0.2487,0.2561,0.2594,0.2758,0.2898,0.3012,0.3131,0.3163,0.3245,0.327,0.2933,0.2898,0.3167,0.3155,0.3317,0.3319,0.3321,0.3322,0.3323,0,0.1939,0.1948,0.2039,0.2059,0.2092,0.2143,0.2181,0.2308,0.2361,0.2554,0.2585,0.277,0.2868,0.3103,0.3157,0.3256,0.3312,0.3074,0.2957,0.3215,0.3201,0.3185,0.317,0.2624,0.262,0.2616,0.2613,0,0.1822,0.1865,0.1899,0.1948,0.1985,0.2024,0.2096,0.2133,0.2292,0.2388,0.252,0.262,0.284,0.2843,0.304,0.3042,0.3038,0.3007,0.337,0.2652,0.2579,0.256,0.2564,0.2579,0.2583,0.2585,0.2587,0.2588,0.173,0.173,0.1798,0.1825,0.187,0.1898,0.1879,0.2039,0.212,0.2288,0.2391,0.2518,0.2596,0.2762,0.2712,0.2704,0.2912,0.28,0.2803,0.2812,0.2751,0.269,0.2696,0.27,0.2703,0.2706,0.2709,0,0.1649,0.1647,0.1676,0.1705,0.1735,0.1765,0.1809,0.1864,0.1966,0.2168,0.2294,0.2207,0.2232,0.2323,0.2239,0.2294,0.2165,0.2222,0.2002,0.2041,0.2074,0.1965,0.1707,0.1703,0.17,0.1698,0,0,0.1605,0.1609,0.1631,0.1602,0.1585,0.159,0.1579,0.1708,0.1859,0.2012,0.2069,0.2251,0.2306,0.2008,0.1954,0.1816,0.1905,0.174,0.2548,0.2329,0.2358,0.2421,0.2304,0,0,0,0,0]},{"header":{"parameterUnit":"m.s-1","parameterCategory":2,"la1":30.2991,"la2":30.254,"lo1":-89.0895,"lo2":-89.0444,"dy":0.0017,"dx":0.0017,"nx":28,"ny":28,"refTime":"2024-06-18T21:00:00:Z","depth":"2","parameterNumber":3,"parameterNumberName":"V-component_of_CURRENTS"},"data":[0,0,0,0,0,0,0,0,0,0,0,0,0,0,0,0,0,0,0,0,0,0,0,0,0,0,0,0,0,0,0,0,0,0,0,0,0,0,0,0,0,0,0,0,0,0,0,0,0,0,0,0,0,0,0,0,0,0,-0.0514,-0.0515,0,-0.0631,-0.0633,-0.0635,-0.0703,-0.0703,-0.0703,-0.0703,-0.0768,-0.077,-0.0772,0,0,0,0,0,0,0,0,0,0,0,0,0,-0.0452,-0.0453,-0.0514,-0.0515,-0.0516,-0.0631,-0.0633,-0.0635,-0.0703,-0.0703,-0.0703,-0.0703,-0.0768,-0.077,-0.0772,0,0,0,0,0,0,0,0,0,0,0,0,0,-0.0518,-0.0453,-0.0513,-0.0561,-0.0567,-0.0631,-0.0633,-0.0636,-0.0703,-0.0703,-0.0703,-0.0703,-0.0767,-0.077,-0.0772,-0.079,0,0,-0.078,-0.0782,0,0,0,0,0,0,0,0,-0.0514,-0.0521,-0.0553,-0.0558,-0.0564,-0.065,-0.0636,-0.0683,-0.0703,-0.0655,-0.0703,-0.0703,-0.0722,-0.0728,-0.0756,-0.0793,-0.0796,-0.0781,-0.0782,-0.0783,-0.0784,0,0,0,0,0,0,0,-0.051,-0.0517,-0.0564,-0.0554,-0.0561,-0.0613,-0.0621,-0.0646,-0.0689,-0.0659,-0.0663,-0.0671,-0.0725,-0.0753,-0.0758,-0.0797,-0.0781,-0.0783,-0.0785,-0.0786,-0.0834,-0.0834,0,0,0,0,0,0,-0.0483,-0.0512,-0.056,-0.0567,-0.0535,-0.0613,-0.0623,-0.0625,-0.069,-0.0699,-0.0671,-0.0674,-0.0749,-0.0754,-0.076,-0.0769,-0.0783,-0.0786,-0.0787,-0.0834,-0.0834,-0.0834,0,0,0,0,0,0,-0.0481,-0.0486,-0.0555,-0.054,-0.0552,-0.0613,-0.0615,-0.0627,-0.0653,-0.0699,-0.0708,-0.0684,-0.0749,-0.0756,-0.0806,-0.0772,-0.0787,-0.079,-0.0835,-0.0834,-0.0834,-0.0796,0,0,0,0,0,0,-0.0479,-0.0484,-0.0486,-0.0538,-0.0552,-0.059,-0.0616,-0.0629,-0.0656,-0.0661,-0.0712,-0.0719,-0.0749,-0.0802,-0.0809,-0.0776,-0.0792,-0.0835,-0.0834,-0.0834,-0.0797,-0.0794,-0.0791,0,0,0,0,0,-0.0476,-0.048,-0.0485,-0.0491,-0.0548,-0.059,-0.0603,-0.0649,-0.0656,-0.0671,-0.0722,-0.0717,-0.0801,-0.0806,-0.0813,-0.078,-0.0835,-0.0835,-0.0834,-0.0799,-0.0795,-0.0791,0,0,0,0,0,0,-0.0462,-0.0488,-0.0495,-0.0508,-0.0541,-0.06,-0.062,-0.0643,-0.0695,-0.0696,-0.074,-0.0751,-0.0773,-0.0789,-0.0793,-0.0791,-0.0806,-0.0807,-0.0776,-0.0773,-0.0769,-0.0738,-0.0794,0,0,0,0,0,-0.0453,-0.046,-0.0494,-0.0506,-0.0516,-0.0563,-0.0587,-0.0611,-0.0659,-0.0682,-0.0716,-0.0747,-0.0776,-0.0788,-0.0817,-0.083,-0.0846,-0.0804,-0.0801,-0.0798,-0.0777,-0.0809,-0.0807,-0.0831,-0.0831,-0.0831,0,0,-0.0452,-0.0467,-0.0472,-0.0503,-0.0531,-0.0544,-0.0578,-0.0605,-0.0611,-0.0678,-0.0703,-0.0743,-0.0781,-0.08,-0.0806,-0.0809,-0.0801,-0.0798,-0.0795,-0.0775,-0.0808,-0.0806,-0.0803,-0.0831,-0.0831,-0.0831,0,0,-0.0449,-0.046,-0.0461,-0.0481,-0.051,-0.0535,-0.0534,-0.058,-0.0595,-0.0631,-0.0672,-0.0704,-0.0746,-0.0769,-0.0785,-0.0779,-0.0789,-0.0771,-0.0724,-0.0755,-0.0753,-0.0752,-0.0771,-0.0771,-0.0762,-0.0762,-0.0762,0,-0.0442,-0.0444,-0.0472,-0.0477,-0.0484,-0.0521,-0.0519,-0.0543,-0.0599,-0.0606,-0.0627,-0.0691,-0.0726,-0.0742,-0.0742,-0.0767,-0.0788,-0.0737,-0.0751,-0.0749,-0.0748,-0.0769,-0.077,-0.076,-0.076,-0.0761,-0.0761,0,-0.0436,-0.0438,-0.0441,-0.0448,-0.0464,-0.0471,-0.0491,-0.0506,-0.0522,-0.0545,-0.0566,-0.0629,-0.0662,-0.0669,-0.0707,-0.0704,-0.0722,-0.075,-0.0759,-0.0744,-0.0766,-0.0768,-0.0757,-0.0758,-0.0759,-0.0759,0,0,-0.0404,-0.0429,-0.0425,-0.0416,-0.0442,-0.0447,-0.0453,-0.0463,-0.0448,-0.0497,-0.049,-0.0545,-0.0572,-0.059,-0.0632,-0.0651,-0.0672,-0.0689,-0.0692,-0.0705,-0.0734,-0.0708,-0.0708,-0.071,-0.071,-0.071,-0.0754,0,-0.0381,-0.0373,-0.0396,-0.0378,-0.0369,-0.0398,-0.0395,-0.0409,-0.0422,-0.0427,-0.0472,-0.0487,-0.0541,-0.0552,-0.0585,-0.0644,-0.0674,-0.0657,-0.0749,-0.0751,-0.0727,-0.0708,-0.067,-0.0703,-0.0756,-0.0756,-0.0756,0,-0.0351,-0.0347,-0.0326,-0.0322,-0.0318,-0.0313,-0.0296,-0.03,-0.032,-0.0332,-0.0362,-0.0402,-0.0435,-0.0488,-0.0574,-0.0562,-0.0642,-0.0692,-0.0696,-0.068,-0.0727,-0.0727,-0.0704,-0.0759,-0.0759,-0.0759,-0.0759,0,-0.0288,-0.0289,-0.0264,-0.0264,-0.0272,-0.0258,-0.0257,-0.0265,-0.0242,-0.0266,-0.0253,-0.0319,-0.0332,-0.0435,-0.0536,-0.0563,-0.0626,-0.0686,-0.074,-0.0739,-0.0725,-0.0723,-0.076,-0.076,-0.0759,-0.0759,-0.0759,0,-0.0242,-0.0217,-0.0227,-0.021,-0.0165,-0.0191,-0.014,-0.0154,-0.0146,-0.0102,-0.0192,-0.0164,-0.0319,-0.0376,-0.05,-0.0598,-0.0606,-0.0714,-0.0743,-0.0711,-0.0707,-0.077,-0.0771,-0.0761,-0.0761,-0.076,-0.076,0,-0.0172,-0.0186,-0.015,-0.0144,-0.0133,-0.0095,-0.0061,-0.0024,-0.0031,0.0024,0.0022,-0.0039,-0.0105,-0.0252,-0.0402,-0.0526,-0.0641,-0.0688,-0.0627,-0.0647,-0.0751,-0.0749,-0.0758,-0.0757,-0.0757,-0.0756,-0.0756,0,-0.0135,-0.0111,-0.0086,-0.0054,-0.0045,0.0001,0.0036,0.0035,0.0078,0.0117,0.0152,0.0108,0.0088,-0.011,-0.0323,-0.0523,-0.0584,-0.0641,-0.0689,-0.072,-0.0748,-0.0747,-0.0746,-0.0667,-0.0666,-0.0665,-0.0664,0,-0.006,-0.0053,-0.0027,0.0036,0.0081,0.013,0.0179,0.0229,0.0245,0.0293,0.0356,0.0352,0.0182,0.0001,-0.0271,-0.041,-0.0604,-0.0628,-0.0674,-0.0662,-0.0634,-0.0662,-0.0664,-0.0656,-0.0657,-0.0658,-0.0658,-0.0658,0.0003,0.0036,0.0068,0.0129,0.018,0.0247,0.0286,0.0323,0.0396,0.0415,0.046,0.0411,0.0262,-0.0102,-0.0268,-0.0493,-0.0528,-0.0645,-0.0648,-0.0652,-0.0622,-0.0594,-0.0602,-0.0603,-0.0603,-0.0603,-0.0604,0,0.0068,0.01,0.016,0.0217,0.0264,0.0288,0.0369,0.0365,0.0416,0.043,0.0439,0.0313,0.0148,-0.0038,-0.0351,-0.0523,-0.0549,-0.0578,-0.0581,-0.0588,-0.0594,-0.0563,-0.0527,-0.0527,-0.0527,-0.0527,0,0,0.0105,0.0158,0.0174,0.026,0.0309,0.0339,0.0376,0.037,0.0357,0.0348,0.0313,0.0269,0.0136,-0.0071,-0.0251,-0.0407,-0.0476,-0.0437,-0.0485,-0.0476,-0.0481,-0.0618,-0.0574,0,0,0,0,0]}],[{"header":{"parameterUnit":"m.s-1","parameterCategory":2,"la1":30.2991,"la2":30.254,"lo1":-89.0895,"lo2":-89.0444,"dy":0.0017,"dx":0.0017,"nx":28,"ny":28,"refTime":"2024-06-18T21:00:00:Z","depth":"4","parameterNumber":2,"parameterNumberName":"U-component_of_CURRENTS"},"data":[0,0,0,0,0,0,0,0,0,0,0,0,0,0,0,0,0,0,0,0,0,0,0,0,0,0,0,0,0,0,0,0,0,0,0,0,0,0,0,0,0,0,0,0,0,0,0,0,0,0,0,0,0,0,0,0,0,0,0.1884,0.1884,0,0.1947,0.1947,0.1948,0.2009,0.201,0.2011,0.2012,0.2044,0.2044,0.2044,0,0,0,0,0,0,0,0,0,0,0,0,0,0.1806,0.1807,0.1884,0.1885,0.1885,0.1946,0.1947,0.1948,0.2009,0.201,0.2011,0.2012,0.2044,0.2044,0.2044,0,0,0,0,0,0,0,0,0,0,0,0,0,0.1849,0.1807,0.1883,0.1924,0.1929,0.1946,0.1947,0.1948,0.2008,0.201,0.2011,0.2013,0.2044,0.2044,0.2044,0.2015,0,0,0.2044,0.2044,0,0,0,0,0,0,0,0,0.1847,0.1852,0.1917,0.1922,0.1927,0.1973,0.1932,0.197,0.2008,0.1976,0.2012,0.2013,0.2017,0.202,0.2026,0.2017,0.2018,0.2044,0.2044,0.2044,0.2044,0,0,0,0,0,0,0,0.1844,0.185,0.1907,0.1918,0.1924,0.1936,0.1944,0.1939,0.1986,0.1979,0.1984,0.1993,0.202,0.2026,0.2027,0.2019,0.2044,0.2044,0.2044,0.2044,0.2076,0.2077,0,0,0,0,0,0,0.1839,0.1847,0.1905,0.1909,0.1891,0.1937,0.1945,0.1955,0.1987,0.1994,0.1992,0.1996,0.2025,0.2027,0.2029,0.2085,0.2044,0.2044,0.2044,0.2075,0.2076,0.2077,0,0,0,0,0,0,0.1837,0.1843,0.1902,0.1881,0.1889,0.1937,0.1947,0.1956,0.2001,0.1998,0.2004,0.2034,0.2027,0.2029,0.2075,0.2084,0.2044,0.2044,0.2074,0.2076,0.2077,0.2141,0,0,0,0,0,0,0.1834,0.1842,0.1866,0.188,0.189,0.1936,0.1946,0.1956,0.2003,0.201,0.2034,0.2037,0.2028,0.2075,0.2075,0.2083,0.2044,0.2073,0.2075,0.2076,0.2138,0.2145,0.215,0,0,0,0,0,0.1831,0.1852,0.1867,0.1875,0.1916,0.1937,0.1944,0.198,0.2004,0.2026,0.206,0.2038,0.2084,0.2077,0.2076,0.2084,0.2072,0.2074,0.2076,0.2135,0.2144,0.215,0,0,0,0,0,0,0.1835,0.1861,0.1877,0.1908,0.1933,0.1949,0.1981,0.2,0.2043,0.2063,0.2062,0.2067,0.2107,0.2089,0.2081,0.2097,0.2068,0.207,0.2114,0.2121,0.2127,0.213,0.2044,0,0,0,0,0,0.1844,0.1871,0.1891,0.1921,0.1936,0.1965,0.1987,0.2009,0.2038,0.2061,0.2081,0.2096,0.2104,0.2114,0.212,0.2133,0.2136,0.2133,0.2139,0.2144,0.2146,0.2185,0.2196,0.2084,0.2084,0.2084,0,0,0.1855,0.1875,0.1892,0.1925,0.195,0.1973,0.1983,0.2024,0.2053,0.2054,0.2116,0.2126,0.2117,0.2141,0.2153,0.2133,0.2178,0.2147,0.2152,0.215,0.2188,0.2199,0.2209,0.2085,0.2085,0.2085,0,0,0.1875,0.1908,0.1932,0.1954,0.1995,0.2007,0.2026,0.2063,0.2096,0.2143,0.2152,0.218,0.2196,0.2193,0.2188,0.2229,0.2216,0.2223,0.225,0.2289,0.2299,0.2307,0.2327,0.2337,0.2218,0.2218,0.2218,0,0.1892,0.192,0.1944,0.1969,0.1994,0.2026,0.2052,0.2081,0.2133,0.2161,0.2174,0.2222,0.2215,0.2235,0.2247,0.2242,0.2262,0.2224,0.2299,0.2307,0.2315,0.2333,0.2343,0.2222,0.2221,0.2221,0.222,0,0.1912,0.1951,0.1969,0.2009,0.2036,0.2069,0.2101,0.2144,0.2186,0.2211,0.227,0.2279,0.2306,0.2297,0.2283,0.2324,0.2321,0.2311,0.2283,0.233,0.2346,0.2356,0.2226,0.2225,0.2224,0.2223,0,0,0.1904,0.1971,0.1982,0.201,0.2063,0.2082,0.2136,0.2182,0.2223,0.2277,0.2329,0.2346,0.2369,0.2366,0.2358,0.2377,0.2441,0.2369,0.237,0.2394,0.253,0.237,0.2364,0.2459,0.2461,0.2463,0.252,0,0.1918,0.1968,0.2,0.2055,0.208,0.2127,0.2169,0.2219,0.2265,0.2323,0.2352,0.2398,0.239,0.241,0.2436,0.2438,0.247,0.2426,0.2475,0.2476,0.2332,0.237,0.2469,0.2527,0.2529,0.2531,0.2532,0,0.1917,0.1954,0.2009,0.2078,0.2096,0.2136,0.2209,0.2251,0.2326,0.2368,0.2428,0.2457,0.2501,0.2488,0.2547,0.2528,0.2542,0.254,0.2542,0.2373,0.2332,0.2468,0.2549,0.2547,0.2546,0.2545,0.2544,0,0.1878,0.1957,0.2004,0.2027,0.2107,0.2152,0.2201,0.2273,0.2314,0.2406,0.2447,0.2516,0.2557,0.2595,0.2605,0.2593,0.266,0.264,0.2513,0.2503,0.2604,0.2593,0.2697,0.2697,0.2697,0.2697,0.2696,0,0.1854,0.1898,0.1999,0.2021,0.2082,0.2147,0.2213,0.227,0.2352,0.2392,0.2479,0.251,0.2592,0.2634,0.2639,0.2598,0.2701,0.252,0.2507,0.2628,0.262,0.261,0.2599,0.2699,0.2698,0.2698,0.2697,0,0.1794,0.1863,0.1923,0.2028,0.2065,0.211,0.2213,0.2249,0.2345,0.24,0.2436,0.2533,0.2579,0.2637,0.2686,0.2618,0.2603,0.2572,0.27,0.2694,0.2413,0.2406,0.2423,0.2418,0.2413,0.241,0.2407,0,0.176,0.1789,0.1914,0.1952,0.2008,0.2086,0.213,0.2234,0.2264,0.2383,0.2393,0.2487,0.2535,0.2476,0.2552,0.2559,0.2535,0.2512,0.245,0.24,0.2387,0.2385,0.2383,0.24,0.2398,0.2397,0.2396,0,0.1696,0.1763,0.1814,0.1893,0.1958,0.2007,0.208,0.2086,0.219,0.2297,0.2286,0.2297,0.2346,0.2368,0.2397,0.2397,0.2508,0.2465,0.2474,0.2415,0.2372,0.2363,0.2366,0.2381,0.2383,0.2384,0.2385,0,0.1656,0.1677,0.176,0.1811,0.1891,0.1905,0.1951,0.1973,0.2012,0.213,0.2122,0.2219,0.2316,0.2286,0.2308,0.2297,0.226,0.2178,0.22,0.2218,0.2122,0.2035,0.193,0,0,0,0,0,0.1601,0.1615,0.1665,0.1715,0.1788,0.1831,0.1905,0.1948,0.2043,0.1983,0.2041,0.2069,0.2076,0.2128,0.2076,0.2238,0.2288,0.2168,0.2211,0.2296,0.2314,0.2219,0,0,0,0,0,0,0.1566,0.1617,0.163,0.1624,0.164,0.1698,0.1742,0.1806,0.1768,0.187,0.1885,0.1957,0.2004,0.2095,0.2044,0.2061,0.2046,0.2232,0.2227,0.2286,0.2302,0.2316,0.2225,0,0,0,0,0]},{"header":{"parameterUnit":"m.s-1","parameterCategory":2,"la1":30.2991,"la2":30.254,"lo1":-89.0895,"lo2":-89.0444,"dy":0.0017,"dx":0.0017,"nx":28,"ny":28,"refTime":"2024-06-18T21:00:00:Z","depth":"4","parameterNumber":3,"parameterNumberName":"V-component_of_CURRENTS"},"data":[0,0,0,0,0,0,0,0,0,0,0,0,0,0,0,0,0,0,0,0,0,0,0,0,0,0,0,0,0,0,0,0,0,0,0,0,0,0,0,0,0,0,0,0,0,0,0,0,0,0,0,0,0,0,0,0,0,0,-0.0116,-0.0116,0,-0.0133,-0.0133,-0.0133,-0.0135,-0.0135,-0.0135,-0.0135,-0.0206,-0.0208,-0.0209,0,0,0,0,0,0,0,0,0,0,0,0,0,-0.0104,-0.0104,-0.0116,-0.0116,-0.0116,-0.0133,-0.0133,-0.0133,-0.0135,-0.0135,-0.0135,-0.0135,-0.0205,-0.0207,-0.021,0,0,0,0,0,0,0,0,0,0,0,0,0,-0.0113,-0.0104,-0.0116,-0.012,-0.0121,-0.0133,-0.0133,-0.0133,-0.0135,-0.0135,-0.0135,-0.0135,-0.0204,-0.0207,-0.021,-0.0231,0,0,-0.0219,-0.022,0,0,0,0,0,0,0,0,-0.0112,-0.0113,-0.0119,-0.012,-0.0121,-0.0132,-0.0154,-0.0169,-0.0136,-0.0129,-0.0135,-0.0135,-0.0187,-0.0191,-0.0193,-0.0234,-0.0237,-0.0219,-0.0221,-0.0222,-0.0223,0,0,0,0,0,0,0,-0.0112,-0.0113,-0.0122,-0.0119,-0.012,-0.0127,-0.0128,-0.0157,-0.0159,-0.013,-0.013,-0.0133,-0.0187,-0.019,-0.0195,-0.0238,-0.0219,-0.0222,-0.0224,-0.0225,-0.0294,-0.0294,0,0,0,0,0,0,-0.011,-0.0112,-0.0121,-0.0122,-0.0117,-0.0128,-0.0129,-0.0128,-0.0157,-0.0162,-0.0133,-0.0133,-0.0185,-0.0191,-0.0197,-0.0214,-0.0222,-0.0225,-0.0227,-0.0294,-0.0294,-0.0295,0,0,0,0,0,0,-0.011,-0.0111,-0.0121,-0.0118,-0.012,-0.0128,-0.0127,-0.0129,-0.0133,-0.016,-0.0165,-0.0137,-0.0185,-0.0193,-0.0206,-0.0217,-0.0226,-0.0229,-0.0294,-0.0294,-0.0294,-0.0255,0,0,0,0,0,0,-0.0109,-0.011,-0.0112,-0.0118,-0.012,-0.0125,-0.0128,-0.0129,-0.0135,-0.0135,-0.0164,-0.017,-0.0186,-0.0202,-0.0209,-0.0222,-0.0231,-0.0294,-0.0294,-0.0294,-0.0256,-0.0254,-0.0252,0,0,0,0,0,-0.0109,-0.0108,-0.0111,-0.0113,-0.0121,-0.0126,-0.0127,-0.0132,-0.0136,-0.0136,-0.0144,-0.017,-0.0209,-0.0203,-0.0213,-0.0226,-0.0294,-0.0294,-0.0294,-0.0257,-0.0254,-0.0252,0,0,0,0,0,0,-0.01,-0.0108,-0.0112,-0.0113,-0.0119,-0.0126,-0.0129,-0.0134,-0.0141,-0.0143,-0.0165,-0.0171,-0.0186,-0.0212,-0.0206,-0.0247,-0.0259,-0.0261,-0.0228,-0.0225,-0.0223,-0.02,-0.0234,0,0,0,0,0,-0.01,-0.0102,-0.011,-0.0111,-0.0115,-0.0123,-0.0127,-0.0131,-0.0138,-0.0141,-0.0159,-0.018,-0.0195,-0.0213,-0.0229,-0.0255,-0.0263,-0.0272,-0.027,-0.0268,-0.0255,-0.0257,-0.0253,-0.0295,-0.0295,-0.0295,0,0,-0.0096,-0.0102,-0.0103,-0.011,-0.0116,-0.0115,-0.0125,-0.013,-0.0129,-0.015,-0.0155,-0.017,-0.0197,-0.0213,-0.0225,-0.0237,-0.0264,-0.0268,-0.0266,-0.0254,-0.0256,-0.0252,-0.0248,-0.0295,-0.0295,-0.0295,0,0,-0.0088,-0.0096,-0.0095,-0.01,-0.0109,-0.0112,-0.0114,-0.0123,-0.0128,-0.0135,-0.0144,-0.0153,-0.0193,-0.02,-0.0213,-0.0212,-0.0244,-0.0237,-0.0216,-0.0219,-0.0215,-0.0211,-0.0229,-0.0227,-0.0245,-0.0245,-0.0245,0,-0.0083,-0.0082,-0.0095,-0.0095,-0.0093,-0.0109,-0.0102,-0.0112,-0.0122,-0.0119,-0.0133,-0.0154,-0.018,-0.0184,-0.0184,-0.0206,-0.0218,-0.0223,-0.0214,-0.021,-0.0207,-0.0226,-0.0225,-0.0243,-0.0243,-0.0243,-0.0244,0,-0.0074,-0.0074,-0.0073,-0.0075,-0.0075,-0.0075,-0.0084,-0.0085,-0.0094,-0.0099,-0.0103,-0.0125,-0.0133,-0.0156,-0.0172,-0.0172,-0.0192,-0.0201,-0.0215,-0.02,-0.0222,-0.0221,-0.024,-0.0241,-0.0242,-0.0242,0,0,-0.0055,-0.0064,-0.0063,-0.0058,-0.0064,-0.006,-0.0056,-0.005,-0.0038,-0.006,-0.0045,-0.0074,-0.0081,-0.0094,-0.0121,-0.0134,-0.0134,-0.0163,-0.0164,-0.0171,-0.0152,-0.0196,-0.02,-0.0144,-0.0143,-0.0143,-0.018,0,-0.0041,-0.0034,-0.0039,-0.0024,-0.0019,-0.0023,-0.0014,-0.0012,-0.0014,-0.0007,-0.003,-0.0031,-0.0062,-0.0066,-0.0079,-0.0115,-0.0129,-0.0124,-0.0173,-0.0174,-0.0207,-0.0198,-0.0141,-0.0179,-0.0179,-0.0179,-0.0179,0,-0.0027,-0.0023,-0.0008,0.0006,0.001,0.0019,0.0046,0.005,0.0054,0.0051,0.0052,0.0036,0.0021,-0.001,-0.0053,-0.0051,-0.0092,-0.0127,-0.0129,-0.0178,-0.0216,-0.0196,-0.0178,-0.0178,-0.0178,-0.0178,-0.0178,0,-0.0007,0.0003,0.0018,0.002,0.0032,0.0048,0.0057,0.0071,0.0086,0.009,0.0101,0.0086,0.0076,0.0033,-0.0041,-0.0043,-0.0098,-0.0108,-0.0185,-0.019,-0.0156,-0.0159,-0.0128,-0.0128,-0.0128,-0.0128,-0.0128,0,0.0009,0.0022,0.0029,0.0036,0.0066,0.0067,0.0103,0.0109,0.013,0.0156,0.0131,0.0143,0.0087,0.0047,-0.002,-0.0107,-0.008,-0.0174,-0.0196,-0.0142,-0.0143,-0.0156,-0.0159,-0.013,-0.0129,-0.0129,-0.0129,0,0.0023,0.0024,0.0043,0.0062,0.0072,0.0092,0.0128,0.0155,0.0164,0.0199,0.0203,0.019,0.0134,0.0059,-0.0018,-0.0083,-0.0162,-0.0201,-0.0148,-0.0167,-0.0256,-0.0257,-0.0274,-0.0276,-0.0278,-0.0279,-0.028,0,0.0027,0.0037,0.0062,0.0079,0.0088,0.0118,0.0144,0.0167,0.0198,0.0226,0.0243,0.021,0.0184,0.0046,-0.0043,-0.0177,-0.0202,-0.0246,-0.0237,-0.0249,-0.0268,-0.0266,-0.0265,-0.0282,-0.0283,-0.0283,-0.0283,0,0.0039,0.0047,0.0063,0.0097,0.0126,0.016,0.0196,0.0224,0.0256,0.027,0.0283,0.0223,0.0152,0.0049,-0.0068,-0.0163,-0.0217,-0.0262,-0.0259,-0.0251,-0.0258,-0.0276,-0.0273,-0.0288,-0.0288,-0.0287,-0.0287,0,0.0049,0.0061,0.0083,0.0113,0.0149,0.0186,0.0208,0.0244,0.0273,0.0307,0.0311,0.024,0.0211,0.0055,-0.0049,-0.0155,-0.0176,-0.0208,-0.0209,-0.0204,-0.0182,-0.0182,-0.02,0,0,0,0,0,0.0057,0.0068,0.0098,0.0129,0.0166,0.0182,0.0238,0.026,0.0296,0.031,0.0315,0.025,0.0111,0.0055,-0.0056,-0.0092,-0.021,-0.0229,-0.0251,-0.0316,-0.0311,-0.0302,0,0,0,0,0,0,0.0061,0.0085,0.0095,0.0134,0.0153,0.0194,0.0226,0.0255,0.0263,0.029,0.0222,0.0203,0.0067,0.0171,-0.0065,-0.0097,-0.013,-0.0289,-0.0292,-0.032,-0.0314,-0.031,-0.0299,0,0,0,0,0]}]]